map of GOJ home
Great Circle Mapper logo
GOJ - Airport
Location
City:  Nizhniy Novgorod, Russian Federation (Russia)
Name:Strigino
ICAO / IATA:UWGG / GOJ

Details
Type:Airport (Aerodrome, Airfield)
Use:Public/Civil
Latitude:5613'48"N (56.230119)
Longitude:4347'03"E (43.784042)
Datum:WGS 1984
Elevation:256 ft (78 m)
Variation:12.41E (WMM2015 magnetic declination)
0.12 annual change
Runways:4
Longest:9203 × 148 ft (2805 × 45 m), paved

Time
Time Zone:UTC+3 (DST+4)

Weather
METAR:UWGG 271000Z 11004MPS 9999 OVC010 07/05 Q1011 R36L/190055 NOSIG RMK QFE751
TAF:UWGG 270752Z 2709/2809 10003MPS 3000 -SHRA BR BKN009 SCT015CB TX10/2712Z TN04/2803Z
TEMPO 2709/2718 08005G12MPS PROB40
TEMPO 2712/2718 TSRA

Related Locations
Nearby:
Farthest:CHT: 10486 mi / 16875 km
Waitangi [Tuuta], Chatham Islands, NZ

Find:

   beyond  
but within

Other Information
Maps:
NOTAMs:
Links:
Sources:

  
flag of Russian Federation (Russia)   

Sectional Chart

Flight Planning
at skyvector.com

Satellite Image

Google Maps Satellite View

 

Copyright © 2004-2015 Karl L. Swartz. All rights reserved.
The Great Circle Mapper name and logo are trademarks of the Great Circle Mapper.
All other trademarks mentioned herein belong to their respective owners.
Please see credits for attibutions and further copyright information.

  Follow gcmap on Facebook Follow gcmap on Twitter Follow gcmap on Google+

hCard Microformat

Geo Microformat